This demonstration page uses our WeatherBlox Daily Observations layout. Learn more.

Left ArrowRight Arrow

Hourly Observations for August 23, 2020

Temp ( °F °C ) Dew Point ( °F °C ) Humidity (%) Winds ( mph kmh ) Pressure ( in mb ) Visibility ( mi km ) Precip ( " mm )
12:15 am 00:15 Clear 70 21 64 17.7 82 82 SSW 3 6 29.86 1011 10 16 N/A
12:35 am 00:35 Clear 72 22.1 64 17.5 75 75 S 5 7 29.87 1012 10 16 N/A
12:55 am 00:55 Clear 73 22.7 64 17.5 73 73 S 6 9 29.87 1011 10 16 N/A
1:15 am 01:15 Clear 71 21.9 63 17.3 75 75 S 5 7 29.86 1011 10 16 N/A
1:35 am 01:35 Clear 72 22 64 17.5 76 76 S 6 9 29.85 1011 10 16 N/A
1:55 am 01:55 Clear 71 21.6 63 17.3 77 77 S 5 7 29.85 1011 10 16 N/A
2:15 am 02:15 Clear 71 21.5 63 17.2 77 77 S 5 7 29.86 1011 10 16 N/A
2:35 am 02:35 Clear 70 21.2 63 17.3 79 79 SSW 6 9 29.86 1011 10 16 N/A
2:55 am 02:55 Clear 70 21.2 63 17.2 78 78 SSW 7 11 29.86 1011 10 16 N/A
3:15 am 03:15 Clear 69 20.6 62 16.9 79 79 S 3 6 29.86 1011 10 16 N/A
3:35 am 03:35 Clear 66 19 62 16.8 87 87 SSE 6 9 29.88 1012 10 16 N/A
3:55 am 03:55 Clear 67 19.5 63 17.1 86 86 S 3 6 29.89 1012 10 16 N/A
4:15 am 04:15 Clear 67 19.2 63 17 87 87 S 5 7 29.88 1012 10 16 N/A
4:35 am 04:35 Clear 65 18.5 62 16.5 88 88 S 3 6 29.90 1013 10 16 N/A
4:55 am 04:55 Clear 64 17.9 61 15.9 88 88 SSE 5 7 29.89 1012 10 16 N/A
5:15 am 05:15 Clear 65 18.3 62 16.5 89 89 SSE 3 6 29.89 1012 10 16 N/A
5:35 am 05:35 Clear 65 18.5 62 16.5 88 88 S 5 7 29.90 1013 10 16 N/A
5:55 am 05:55 Clear 66 19 62 16.7 87 87 S 6 9 29.91 1013 10 16 N/A
6:15 am 06:15 Clear 67 19.5 62 16.5 83 83 S 5 7 29.90 1013 10 16 N/A
6:35 am 06:35 Clear 66 19.1 61 16.3 84 84 N N/A 29.89 1012 10 16 N/A
6:55 am 06:55 Clear 67 19.3 62 16.4 83 83 SSW 3 6 29.91 1013 10 16 N/A
7:15 am 07:15 Sunny 67 19.3 61 16.2 82 82 S 3 6 29.91 1013 10 16 N/A
7:35 am 07:35 Sunny 67 19.2 62 16.6 85 85 S 3 6 29.92 1013 10 16 N/A
7:55 am 07:55 Sunny 67 19.7 62 16.8 83 83 S 5 7 29.92 1013 10 16 N/A
8:15 am 08:15 Sunny 69 20.4 63 17 81 81 S 5 7 29.92 1013 10 16 N/A
8:35 am 08:35 Sunny 70 21.3 63 17.1 77 77 S 3 6 29.92 1013 10 16 N/A
8:55 am 08:55 Sunny 72 22 64 17.5 76 76 N N/A 29.92 1013 10 16 N/A
9:15 am 09:15 Sunny 73 23 63 17.4 71 71 SSW 3 6 29.91 1013 10 16 N/A
9:35 am 09:35 Sunny 75 23.9 64 17.6 68 68 SSW 6 9 29.91 1013 10 16 N/A
9:55 am 09:55 Sunny 77 24.9 63 17.3 63 63 SSW 6 9 29.90 1012 10 16 N/A
10:15 am 10:15 Sunny 78 25.5 64 17.5 61 61 SW 5 7 29.90 1013 10 16 N/A
10:35 am 10:35 Sunny 80 26.5 64 17.5 58 58 SW 5 7 29.88 1012 10 16 N/A
10:55 am 10:55 Sunny 81 27 64 17.9 58 58 SSW 6 9 29.89 1012 10 16 N/A
11:15 am 11:15 Sunny 82 27.8 65 18.2 56 56 SSW 6 9 29.87 1012 10 16 N/A
11:35 am 11:35 Sunny 83 28.2 66 18.8 57 57 S 3 6 29.88 1012 10 16 N/A
11:55 am 11:55 Sunny 84 29 66 18.8 54 54 S 6 9 29.86 1011 10 16 N/A
12:15 pm 12:15 Sunny 86 29.9 65 18.2 49 49 SSW 5 7 29.87 1011 10 16 N/A
12:35 pm 12:35 Sunny 87 30.5 64 18 47 47 S 5 7 29.85 1011 10 16 N/A
12:55 pm 12:55 Sunny 87 30.5 65 18.2 48 48 S 8 13 29.83 1010 10 16 N/A
1:15 pm 13:15 Sunny 89 31.5 65 18.2 45 45 S 5 7 29.84 1010 10 16 N/A
1:35 pm 13:35 Sunny 90 32 65 18.6 45 45 S 7 11 29.83 1010 10 16 N/A
1:55 pm 13:55 Sunny 90 32.4 64 17.7 41 41 S 9 15 29.82 1010 10 16 N/A
2:15 pm 14:15 Sunny 91 32.9 62 16.7 38 38 SSE 6 9 29.83 1010 10 16 N/A
2:35 pm 14:35 Sunny 91 32.9 63 17.4 40 40 SSE 7 11 29.83 1010 10 16 N/A
2:55 pm 14:55 Sunny 92 33.6 62 16.8 37 37 S 9 15 29.81 1009 10 16 N/A
3:15 pm 15:15 Sunny 93 34 63 17.2 37 37 SSE 9 15 29.81 1009 10 16 N/A
3:35 pm 15:35 Sunny 93 33.8 63 17 37 37 S 7 11 29.81 1009 10 16 N/A
3:55 pm 15:55 Sunny 94 34.5 62 16.6 34 34 S 7 11 29.78 1009 10 16 N/A
4:15 pm 16:15 Sunny 95 34.8 62 16.8 34 34 S 9 15 29.78 1009 10 16 N/A
4:35 pm 16:35 Sunny 95 35 63 17.3 35 35 S 9 15 29.78 1008 10 16 N/A
4:55 pm 16:55 Sunny 95 35.1 63 17 34 34 S 6 9 29.79 1009 10 16 N/A
5:15 pm 17:15 Sunny 95 34.9 63 17 34 34 S 7 11 29.77 1008 10 16 N/A
5:35 pm 17:35 Sunny 95 34.8 63 17 35 35 S 7 11 29.76 1008 10 16 N/A
5:55 pm 17:55 Sunny 94 34.3 64 18 38 38 SSE 6 9 29.77 1008 10 16 N/A
6:15 pm 18:15 Sunny 93 33.8 65 18.3 40 40 SSE 7 11 29.77 1008 10 16 N/A
6:35 pm 18:35 Sunny 92 33.1 65 18.4 42 42 SSE 6 9 29.77 1008 10 16 N/A
6:55 pm 18:55 Sunny 90 32.4 67 19.3 46 46 SSE 5 7 29.78 1008 10 16 N/A
7:15 pm 19:15 Sunny 89 31.5 68 19.8 50 50 SSE 6 9 29.78 1008 10 16 N/A
7:35 pm 19:35 Sunny 87 30.3 67 19.7 53 53 SSE 5 7 29.79 1009 10 16 N/A
7:55 pm 19:55 Sunny 84 29.1 67 19.6 57 57 SSE 6 9 29.79 1009 10 16 N/A
8:15 pm 20:15 Sunny 82 27.9 66 19.1 59 59 SSE 5 7 29.81 1010 10 16 N/A
8:35 pm 20:35 Clear 80 26.7 65 18.6 61 61 SSE 5 7 29.82 1010 10 16 N/A
8:55 pm 20:55 Clear 80 26.5 64 18 60 60 SSE 5 7 29.82 1010 10 16 N/A
9:15 pm 21:15 Clear 78 25.7 65 18.1 63 63 S 5 7 29.84 1011 10 16 N/A
9:35 pm 21:35 Clear 77 25.1 64 18 65 65 S 5 7 29.86 1011 10 16 N/A
9:55 pm 21:55 Clear 76 24.2 64 18 68 68 SSE 3 6 29.87 1012 10 16 N/A
10:15 pm 22:15 Clear 75 24 64 17.7 68 68 S 5 7 29.88 1012 10 16 N/A
10:35 pm 22:35 Clear 74 23.6 64 17.5 69 69 S 7 11 29.89 1012 10 16 N/A
10:55 pm 22:55 Clear 73 23 63 17.2 70 70 SSE 3 6 29.89 1012 10 16 N/A
11:15 pm 23:15 Clear 73 22.8 63 17.1 70 70 S 3 6 29.89 1012 10 16 N/A
11:35 pm 23:35 Clear 72 22.4 63 17 72 72 S 6 9 29.91 1013 10 16 N/A
11:55 pm 23:55 Clear 71 21.4 63 17.2 77 77 S 5 7 29.92 1013 10 16 N/A

Powered by AerisWeather